Starlink 33778

operational
NORAD ID: 63877 Int'l Des: 2025-094 Owner: SPXS Country: US Constellation: starlink
LEOCIRCULAR

Starlink 33778について

説明を読み込み中...

リアルタイム位置

3D地球を読み込み中...

次回通過

高度履歴

Altitude vs Time

uPlot chart will show altitude changes over time

軌道要素

1 63877U 25094P 26061.16668981 -.00049252 00000-0 -41463-2 0 9995
2 63877 69.9994 253.4683 0002655 273.0009 139.1241 14.98355950 5701
Epoch: Mar 2, 2026 • Age: 34 hours

現在のステータス

高度 575.6 km
速度 7.57 km/s
衛星直下点 -6.69°S, 66.05°W
打ち上げ日 May 10, 2025
運用期間 0.8 years
タイプ internet

技術仕様

分類 Payload
質量 575.00 kg
乾燥質量 530.00 kg
総質量 575.00 kg
長さ 0.30 m
直径 4.10 m
スパン 29.00 m
形状 Box + pan
製造者 SPXS
バスタイプ Starlink V2MO
フェーズステータス In Orbit
所有者/国 SPXS/US

大規模コンステレーション

Loading constellations...